STARLINK-11480, 62830

Orbit data source: Space-Track

STARLINK-11480, 62830 is a payload satellite owned by SpaceX/Seattle (US) in LEO that was launched on Mon, 27 Jan 2025 UTC via an FALCON 9 launch vehicle from the Air Force Eastern Test Range (AFETR). Payload-class satellites include a variety of spacecraft equipped with specific instruments for various scientific and technological missions. These include communications satellites like Starlink; space stations such as the ISS; scientific satellites like the Hubble; Earth observation satellites from companies like Planet Labs, Umbra, and HawkEye 360; GPS; miniature CubeSats for education and research; and military/defense satellites.

Loading next visibility...
Identifier
62830, 2025-019B
Orbit
LEO
Country
Flag of USUS
Related business
Manufacturer
SpaceX/Seattle
Mission
Operational Commercial Communications
Bus & Motor
STARLINK V2MD, Unknown motor
Mass
960 kg wet, ~910 kg dry
Launch date (UTC)
2025-01-27 (1 year ago)
Launch vehicle
FALCON 9
Launch site
Air Force Eastern Test Range (AFETR)
Object type
Payload
Rocket body
Debris
Shape & HBR
Box + 2 Pan, 18.1 m
Radar Cross Section
36.964 m², Large (>1 m²)

Expand to show TLE details & history
Last TLE update: 10 hours ago

TLE from 10 hours ago
0 STARLINK-11480
1 62830U 25019B   26174.95613444  .00214336  00000-0  16285-2 0  9995
2 62830  43.0026  25.4513 0002563 278.5780  81.4798 15.70877447 80598
Epoch: 2026-06-23T22:56Z
TLE epoch observation values (Epoch: 2026-06-23T22:56:50.015Z)
Latitude
0.00003°
Longitude
129.12267°
Altitude
355.904 km
Speed
7.698 km/s
True Right ascension
01h 41m 48s
True Declination
0° 00' 00"
Sunlit
Object was in daylight at epoch
Visualization orbit readout
Latitude
Unknown
Longitude
Unknown
Altitude
Unknown
Speed
Unknown
Apparent Right ascension
Unknown
Apparent Declination
Unknown
Sunlit
N/A
Visualization observer readout
Local Sidereal Time
20:16:54
Azimuth
Unknown
Elevation
Unknown
Doppler factor
Unknown
Orbital elements
Apogee altitude
360.096 km
Perigee altitude
356.643 km
Semi-major axis
6,736.506 km
Eccentricity
0.00026
Inclination
43.0026°
RAAN
25.4513°
Arg. of periapsis
278.578°
True anomaly
81.50885°
Mean anomaly
81.4798°
Eccentric anomaly
81.49432°
Mean motion
3.92546 °/min
Orbital period
91.71 mins
BSTAR
0.0016285
Loading maneuver chart data...
Computing Atmospheric mass density...
Loading historical data...
Loading historical data...
Loading historical data...
Loading historical data...
Loading historical data...
Loading historical data...
Loading historical data...

Documentation

Showing up to 5 results
|